This demonstration page uses our WeatherBlox Daily Observations layout. Learn more.

Left ArrowRight Arrow

39.08367, -84.50855

Hourly Observations for October 22, 2021

Temp ( °F °C ) Dew Point ( °F °C ) Humidity (%) Winds ( mph kmh ) Pressure ( in mb ) Visibility ( mi km ) Precip ( " mm )
12:53 am 00:53 Clear 52 11.1 45 7.2 77 77 VRB 3 6 30.04 1017 10 16 N/A
1:53 am 01:53 Clear 47 8.3 45 7.2 93 93 S 3 6 30.04 1017 10 16 N/A
2:53 am 02:53 Clear 46 7.8 45 7.2 96 96 N N/A 30.04 1017 10 16 N/A
3:53 am 03:53 Cloudy 46 7.8 46 7.8 100 100 N N/A 30.04 1017 10 16 N/A
4:53 am 04:53 Cloudy 49 9.4 48 8.9 97 97 SSW 5 7 30.03 1017 10 16 N/A
5:53 am 05:53 Cloudy 51 10.6 47 8.3 86 86 WNW 5 7 30.04 1017 10 16 N/A
6:53 am 06:53 Cloudy 52 11.1 48 8.9 86 86 W 6 9 30.04 1017 10 16 N/A
7:53 am 07:53 Cloudy 52 11.1 48 8.9 86 86 WNW 3 6 30.06 1018 10 16 N/A
8:53 am 08:53 Cloudy 53 11.7 48 8.9 83 83 W 6 9 30.08 1019 10 16 N/A
9:53 am 09:53 Cloudy with Mist and Fog 52 11.1 50 10 93 93 WSW 7 11 30.09 1019 5 8 N/A
10:53 am 10:53 Cloudy with Mist and Fog 52 11.1 50 10 93 93 S 5 7 30.09 1019 10 16 N/A
11:53 am 11:53 Cloudy 53 11.7 50 10 89 89 SW 6 9 30.09 1019 7 11 N/A
12:53 pm 12:53 Cloudy with Mist and Fog 52 11.1 50 10 93 93 SW 7 11 30.08 1019 6 10 N/A
1:53 pm 13:53 Cloudy with Mist and Fog 53 11.7 50 10 89 89 SSW 6 9 30.06 1018 5 8 N/A
2:53 pm 14:53 Cloudy with Light Rain 53 11.7 51 10.6 93 93 S 6 9 30.04 1017 5 8 0.00 0.00
3:21 pm 15:21 Cloudy with Light Rain 53 11.7 51 10.6 93 93 S 3 6 30.04 1017 3 4 0.00 0.00
3:30 pm 15:30 Cloudy with Light Rain 53 11.7 52 11.1 96 96 S 3 6 30.04 1017 3 5 0.01 0.25
3:40 pm 15:40 Cloudy with Light Rain 53 11.7 52 11.1 96 96 S 5 7 30.04 1017 2 3 0.01 0.25
3:53 pm 15:53 Cloudy with Mist and Fog 53 11.7 52 11.1 96 96 S 5 7 30.04 1017 2 3 0.01 0.25
4:53 pm 16:53 Cloudy with Light Rain 53 11.7 53 11.7 100 100 S 7 11 30.04 1017 2 3 0.01 0.25
5:53 pm 17:53 Cloudy with Mist and Fog 53 11.7 53 11.7 100 100 S 7 11 30.03 1017 2 3 0.00 0.00
6:53 pm 18:53 Cloudy with Light Rain 53 11.7 53 11.7 100 100 S 6 9 30.04 1017 3 5 0.02 0.51
7:00 pm 19:00 Cloudy with Mist and Fog 53 11.7 53 11.7 100 100 S 6 9 30.04 1017 2 3 0.00 0.00
7:53 pm 19:53 Cloudy with Light Rain 53 11.7 52 11.1 96 96 SSW 7 11 30.04 1017 4 6 0.00 0.00
8:53 pm 20:53 Cloudy with Mist and Fog 53 11.7 52 11.1 96 96 SSW 8 13 30.04 1017 6 10 0.01 0.25
9:53 pm 21:53 Cloudy 53 11.7 52 11.1 96 96 SSW 6 9 30.04 1017 10 16 N/A
10:53 pm 22:53 Cloudy 53 11.7 52 11.1 96 96 SSW 6 9 30.04 1017 7 11 N/A
11:03 pm 23:03 Cloudy with Mist and Fog 53 11.7 52 11.1 96 96 SW 7 11 30.04 1017 6 10 N/A
11:45 pm 23:45 Cloudy with Light Rain 53 11.7 52 11.1 96 96 SW 8 13 30.03 1017 6 10 0.00 0.00
11:53 pm 23:53 Cloudy with Light Rain 53 11.7 52 11.1 96 96 SW 8 13 30.03 1017 6 10 0.00 0.00

Powered by AerisWeather